Date,TemperatureHighF,TemperatureAvgF,TemperatureLowF,DewpointHighF,DewpointAvgF,DewpointLowF,HumidityHigh,HumidityAvg,HumidityLow,PressureMaxIn,PressureMinIn,WindSpeedMaxMPH,WindSpeedAvgMPH,GustSpeedMaxMPH,PrecipitationSumIn
2013-5-1,57.0,46.7,36.0,57.0,46.1,27.0,100,98,70,30.53,30.46,17,5,27,0.01
2013-5-2,63.0,53.4,46.0,63.0,53.4,46.0,100,100,100,30.45,30.32,18,7,29,0.00
2013-5-3,58.0,50.7,42.0,58.0,50.7,42.0,100,100,100,30.36,30.17,20,6,27,0.00
2013-5-4,85.0,63.6,45.0,85.0,63.6,45.0,100,100,100,30.18,29.90,19,5,30,0.00
2013-5-5,88.0,66.7,50.0,88.0,66.7,50.0,100,100,100,29.91,29.71,20,10,32,0.00
2013-5-6,59.0,54.4,51.0,59.0,54.4,51.0,100,100,100,30.02,29.89,10,5,16,0.00
2013-5-7,56.0,52.6,51.0,56.0,52.6,51.0,100,100,100,30.13,30.01,14,7,21,0.00
2013-5-8,57.0,52.8,51.0,57.0,52.8,51.0,100,100,100,30.24,30.13,10,4,14,0.00
2013-5-9,55.0,52.4,51.0,55.0,51.5,42.0,100,97,71,30.26,30.18,17,7,24,0.00
2013-5-10,54.0,50.6,50.0,49.0,36.9,-99.9,83,65,51,30.31,30.22,8,3,12,0.00
2013-5-11,64.0,55.5,50.0,64.0,47.0,-99.9,100,80,31,30.31,30.12,8,3,12,0.00
2013-5-12,61.0,57.4,55.0,61.0,53.5,37.0,100,88,50,30.22,30.14,11,6,18,0.04
2013-5-13,57.0,54.3,51.0,50.0,31.8,6.0,76,44,18,30.29,30.13,17,7,24,0.05
2013-5-14,56.0,51.3,44.0,56.0,35.4,-99.9,100,75,2,30.29,30.20,14,5,18,0.01
2013-5-15,60.0,53.6,48.0,60.0,36.4,-4.0,100,65,11,30.20,30.07,12,5,21,0.07
2013-5-16,57.0,51.3,53.0,57.0,27.9,-99.9,100,77,46,30.07,30.00,14,6,21,0.22
2013-5-17,59.0,54.1,50.0,59.0,41.6,-99.9,100,80,29,30.16,30.06,10,5,14,0.18
2013-5-18,56.0,53.6,51.0,56.0,50.7,35.0,100,91,55,30.35,30.15,21,7,30,0.10
2013-5-19,57.0,54.0,52.0,57.0,53.3,43.0,100,98,72,30.49,30.35,20,11,27,0.02
2013-5-20,54.0,52.3,51.0,54.0,52.3,51.0,100,100,100,30.15,30.04,15,8,23,0.00
2013-5-21,51.0,48.2,46.0,51.0,43.4,31.0,100,84,56,30.07,29.95,19,7,28,0.52
2013-5-22,50.0,48.4,45.0,50.0,43.5,25.0,100,85,46,30.06,30.01,12,6,21,0.83
2013-5-23,54.0,50.3,47.0,54.0,47.4,30.0,100,91,50,30.09,30.04,17,8,27,0.71
2013-5-24,54.0,50.9,48.0,54.0,49.8,38.0,100,96,65,30.16,30.06,14,8,23,0.30
2013-5-25,56.0,52.9,49.0,56.0,51.4,39.0,100,95,67,30.15,30.00,13,5,18,0.09
2013-5-26,58.0,54.0,51.0,58.0,54.0,51.0,100,100,100,30.13,30.00,15,8,23,0.13
2013-5-27,56.0,54.3,52.0,56.0,54.3,52.0,100,100,100,30.04,29.80,24,11,37,0.46
2013-5-28,58.0,54.3,51.0,58.0,54.3,51.0,100,100,100,30.03,29.78,17,7,29,0.23
2013-5-29,57.0,54.2,52.0,57.0,54.2,52.0,100,100,100,30.14,29.68,24,9,40,0.44
2013-5-30,58.0,53.8,50.0,58.0,53.8,50.0,100,100,100,30.33,30.14,10,4,19,0.04
2013-5-31,59.0,53.0,46.0,59.0,53.0,46.0,100,100,100,30.39,30.30,16,6,24,0.04